Home   Weather   Resistencia   Past weeks

Flag for Argentina Past Weather in Resistencia, Chaco, Argentina — Yesterday and Last 2 Weeks

Now
91 °F

Passing clouds.


Feels Like: 92 °F
Forecast: 65 / 93 °F
Wind: 6 mph from Northeast

Location: Resistencia Aero.

Current Time: Dec 5, 2016 at 5:40:15 pm

Latest Report: Dec 5, 2016 at 5:00 pm


Visibility: N/A

Pressure: 29.65 "Hg

Humidity: 38%

Dew Point: 63 °F

Location of ResistenciaLocation

Past Weather in Resistencia — Graph

°F

Resistencia Temperature Yesterday

Maximum temperature yesterday: 86 °F (at 6:00 pm)
Minimum temperature yesterday: 68 °F (at 4:00 am)
Average temperature yesterday: 76 °F

High & Low Weather Summary for the Past Weeks

 TemperatureHumidityPressure
High99 °F (Nov 26, 3:00 pm)100% (Nov 21, 12:00 am)30.09 "Hg (Nov 21, 12:00 am)
Low55 °F (Nov 21, 6:00 am)27% (Nov 24, 1:00 pm)29.59 "Hg (Nov 26, 6:00 pm)
Average76 °F72%29.86 "Hg
* Reported Nov 20 5:00 pm — Dec 5 4:00 pm, Resistencia, Weather by CustomWeather, © 2016

Note: Actual official high and low records may vary slightly from our data, if they occured in-between our weather recording intervals... More about our weather records

Advertising

Resistencia Weather History for the Previous 24 Hours

Scroll right to see more
 ConditionsComfort  
Time TempWeatherWind HumidityBarometerVisibility
4:00 pm
Mon, Dec 5
91 °FSunny.5 mph41%29.68 "Hg10 mi
3:00 pm90 °FSunny.8 mph46%29.68 "Hg10 mi
2:00 pm88 °FPassing clouds.9 mph46%29.71 "HgN/A
1:00 pm88 °FPassing clouds.9 mph49%29.71 "HgN/A
12:00 pm86 °FPassing clouds.10 mph55%29.71 "HgN/A
11:00 am84 °FSunny.14 mph58%29.74 "Hg10 mi
10:00 am82 °FSunny.15 mph62%29.71 "Hg10 mi
9:00 am79 °FPassing clouds.14 mph74%29.71 "HgN/A
8:00 am77 °FSunny.8 mph79%29.71 "Hg10 mi
7:00 am72 °FSunny.7 mph94%29.71 "Hg10 mi
6:00 am68 °FFog.6 mph100%29.68 "Hg3 mi
5:00 am68 °FClear.3 mph94%29.71 "Hg4 mi
4:00 am68 °FFog.2 mph94%29.68 "Hg2 mi
3:00 am68 °FFog.1 mph94%29.68 "Hg3 mi
2:00 am70 °FClear.3 mph94%29.71 "Hg5 mi
1:00 am70 °FClear.2 mph100%29.68 "Hg10 mi
12:00 am70 °FClear.3 mph94%29.71 "Hg10 mi
11:00 pm
Sun, Dec 4
73 °FClear.3 mph83%29.71 "Hg10 mi
10:00 pm73 °FClear.5 mph78%29.71 "Hg10 mi
9:00 pm77 °FClear.7 mph69%29.68 "Hg10 mi
8:00 pm79 °FPassing clouds.7 mph65%29.68 "HgN/A
7:00 pm82 °FScattered clouds.6 mph58%29.71 "HgN/A
6:00 pm86 °FScattered clouds.7 mph52%29.68 "HgN/A
5:00 pm84 °FPassing clouds.10 mph55%29.71 "HgN/A
Weather by CustomWeather, © 2016

See weather overviewHow to use our weather pages